Terug naar catalogus

COSMOS 1030 DEB

LostHEO
NORAD 32973·DEBRIS·🇷🇺 Russia

Gelanceerd Sep 6, 1978 vanaf Plesetsk Cosmodrome

Loading…

Volgende Passages (komende 24 uur)

TLE

VerouderdSource: Space-Track

Epoch: Sep 4, 2022, 06:33 UTC

1 32973U 78083R   22247.27302834 -.00000153  00000-0  00000-0 0  9996
2 32973  70.4560   6.6716 5685694 320.9362   9.3597  2.14565717201220

Volg COSMOS 1030 DEB in realtime met AllMySat

Download on the App Store